GEFSSE_con_prob3kmehi_228.txt.gz
EHI
0 0 0 0 0 0 0 0 0 0 1 2 2 2 1 0 1 1 0 0 0 0 0 0 0 0 0 0 0 0 0 1 0 0 0 0 0 0 0 1 1 0 0
0 0 0 0 0 0 0 0 0 0 0 1 2 2 1 0 1 1 0 0 0 0 0 0 0 0 0 0 0 0 1 1 1 0 0 0 0 0 1 2 2 1 0
0 0 0 0 0 0 0 0 0 0 0 1 2 1 0 0 1 1 0 0 0 0 0 0 0 0 0 0 0 0 1 2 1 0 0 0 0 0 1 2 2 1 1
0 0 0 0 0 0 0 0 0 1 1 2 2 2 1 0 0 0 0 0 0 0 0 0 0 0 0 0 0 0 0 1 1 0 0 0 0 0 1 1 1 1 0
0 0 0 0 0 0 0 0 1 1 2 2 2 2 1 1 1 0 0 0 1 0 0 0 0 0 0 0 0 0 0 0 1 0 0 0 0 0 0 0 0 0 0
0 0 1 2 1 0 0 1 2 3 1 1 1 1 1 2 2 1 1 1 1 0 0 0 0 0 0 0 0 0 0 0 0 0 0 0 0 0 0 0 0 0 0
0 0 1 3 2 0 0 0 2 3 2 1 0 0 1 2 3 3 2 1 0 0 0 0 0 0 0 0 0 1 1 0 0 0 0 0 1 2 1 0 0 0 0
0 0 1 2 2 1 0 0 1 2 2 1 1 1 1 3 4 4 2 1 0 0 1 1 0 0 0 0 0 1 1 1 0 0 0 0 2 3 2 0 0 0 0
0 0 0 1 1 0 0 0 1 2 2 2 3 2 2 2 3 4 2 1 0 0 1 1 1 1 1 0 0 0 1 1 0 0 0 1 3 5 3 1 0 0 0
0 0 0 0 0 0 0 1 2 2 2 3 3 2 1 1 1 2 2 1 1 1 1 2 2 3 3 1 0 0 1 1 0 0 0 1 4 6 5 2 1 0 0
0 0 0 0 0 0 0 1 2 3 2 2 1 0 0 0 0 0 1 2 3 3 3 3 4 5 5 3 1 1 1 0 0 0 0 2 6 8 6 4 2 1 0
0 0 0 0 0 0 0 1 1 2 1 0 0 0 0 0 0 0 0 2 3 3 3 4 4 5 4 3 1 1 0 0 0 0 1 3 7 9 7 5 3 1 0
1 1 0 0 0 0 0 0 0 0 0 0 0 0 0 0 0 0 0 1 1 1 1 1 2 2 2 2 1 0 0 0 0 0 1 4 8 9 8 5 2 0 1
3 3 2 1 1 2 2 1 0 0 0 0 0 0 0 0 0 0 0 0 0 0 0 0 0 0 0 0 0 0 0 0 0 0 1 5 8 7 6 3 1 0 1
5 5 5 4 4 4 3 1 0 0 0 0 0 0 0 0 0 0 0 0 0 0 0 0 0 0 0 0 0 0 0 0 0 0 1 5 7 5 4 2 1 1 1
7 7 8 7 6 5 3 1 0 0 1 1 1 0 0 0 0 0 0 0 0 0 0 0 0 0 0 0 0 0 0 0 0 0 1 3 4 3 4 4 2 1 1
8 7 7 8 6 5 3 2 1 1 1 2 2 1 0 0 0 0 0 0 0 0 0 0 0 0 0 0 0 0 0 0 0 0 0 1 1 2 4 5 4 2 1
10 8 6 6 5 4 4 3 2 2 2 4 4 3 1 1 0 0 0 0 0 0 0 0 0 0 0 0 0 0 0 0 0 0 0 0 0 0 3 6 6 3 2
14 10 6 5 5 4 4 4 3 3 4 5 5 4 3 2 1 0 0 0 0 0 0 0 0 0 0 0 0 0 0 0 0 0 0 0 0 0 1 4 5 4 4
15 11 8 7 7 6 5 4 3 4 6 6 5 4 3 3 1 0 0 0 0 0 0 0 0 0 0 0 0 0 0 0 0 0 0 0 0 0 0 1 2 2 3
16 12 10 9 9 7 7 6 4 4 6 7 6 4 3 3 3 1 0 0 0 0 0 0 0 0 0 0 0 0 0 0 0 0 0 0 0 0 0 0 0 0 1
20 16 14 14 13 11 9 7 5 4 5 6 6 5 4 4 4 2 1 0 0 0 0 0 0 0 0 0 0 0 0 0 0 0 0 0 0 0 0 0 0 0 0
27 23 20 21 22 18 12 9 7 6 5 5 5 5 5 5 4 3 1 1 1 1 0 0 0 0 0 0 0 0 0 0 0 0 0 0 0 0 0 0 0 0 0
32 29 26 26 27 25 19 14 11 9 6 4 4 5 5 5 4 4 3 2 3 3 1 1 0 0 0 0 0 0 0 0 0 0 0 0 0 0 0 0 0 0 0
36 32 29 29 30 28 24 19 15 12 7 4 4 4 4 4 5 6 5 5 5 5 4 3 1 1 1 1 0 0 0 0 0 0 0 0 0 0 0 0 0 1 1
39 34 30 31 32 29 25 20 16 12 7 5 4 4 3 4 5 6 7 6 6 6 6 4 3 2 2 2 1 0 0 0 0 0 0 0 0 0 0 0 1 2 2

GEFSSE_con_prob3kmehi_234.txt.gz
EHI
0 0 0 0 0 0 1 1 1 1 1 1 2 2 1 1 1 1 1 0 1 1 1 0 0 0 0 0 0 0 0 0 0 0 0 0 0 0 1 2 2 1 0
0 0 0 0 0 0 0 0 0 0 0 0 1 1 1 1 1 2 1 0 0 0 0 0 0 0 0 0 0 0 0 0 0 0 0 0 0 0 1 1 1 0 0
0 0 0 0 0 0 0 0 0 0 0 0 0 0 0 0 1 1 1 0 0 0 0 0 0 0 0 0 0 0 0 0 0 0 0 0 0 0 0 0 0 0 0
0 0 0 0 0 0 0 0 0 0 0 0 0 0 0 0 0 1 1 0 0 0 0 0 0 0 0 0 0 0 0 0 0 0 0 0 0 0 0 0 0 0 0
0 0 1 1 1 1 1 1 1 0 0 0 0 0 0 0 1 2 1 0 0 0 0 0 0 0 0 0 0 1 1 1 0 0 0 0 0 0 0 0 0 0 0
0 0 1 2 3 2 2 2 2 1 1 1 0 0 0 0 1 1 1 0 0 0 0 0 0 0 0 0 0 1 2 1 0 0 0 0 0 0 0 0 0 0 0
0 0 1 2 3 3 3 3 3 3 3 2 1 0 0 0 0 0 0 0 0 0 0 0 0 0 0 0 0 2 2 1 0 0 0 0 0 0 0 0 0 0 0
0 0 0 1 1 2 1 1 3 4 5 4 2 1 1 1 0 0 0 0 1 0 0 0 0 0 0 0 1 2 2 1 0 0 0 0 0 0 0 0 0 0 0
0 0 0 0 0 0 0 1 2 3 5 5 3 1 2 1 0 0 0 0 0 0 0 0 0 0 0 0 1 1 1 0 0 0 0 0 0 0 0 0 0 0 0
0 0 0 0 0 0 0 1 2 2 3 4 2 1 1 1 0 0 0 0 0 0 0 0 0 0 0 0 0 0 0 0 0 0 0 0 0 1 0 0 0 0 0
0 0 0 0 0 0 0 1 1 0 1 1 1 0 0 0 0 0 0 0 0 1 1 0 0 0 0 0 0 0 0 0 0 0 0 0 0 0 0 0 0 0 0
0 0 0 0 0 0 0 0 0 0 0 0 0 0 0 0 0 0 0 0 1 1 1 0 0 0 0 0 0 0 0 0 0 0 0 0 0 0 1 1 1 0 0
0 0 0 0 0 0 0 0 0 0 0 0 0 0 0 0 0 0 0 0 1 1 1 0 0 0 0 0 0 0 0 0 0 0 0 0 1 1 2 2 2 1 0
1 1 0 0 0 0 0 0 0 0 0 0 0 0 0 0 0 0 0 0 0 0 0 0 0 0 0 0 0 0 0 0 0 0 0 0 1 1 2 3 3 2 1
2 1 0 0 0 0 0 0 0 0 0 0 0 0 0 0 0 0 0 0 0 0 0 0 0 0 0 0 0 0 0 0 0 0 0 1 1 1 1 1 3 2 1
2 1 1 1 1 1 0 0 0 0 0 0 0 0 0 0 0 0 0 0 0 0 0 0 0 0 0 0 0 0 0 0 0 0 0 1 2 2 1 1 3 2 1
1 1 3 3 3 2 1 0 0 0 0 0 0 0 0 0 0 0 0 0 0 0 0 0 0 0 0 0 0 0 0 0 0 0 0 0 1 3 3 3 3 2 1
1 2 4 4 4 3 2 1 0 0 0 0 0 0 0 0 0 0 0 0 0 0 0 0 0 0 0 0 0 0 0 0 0 0 0 0 0 1 2 3 3 2 1
2 3 4 4 3 3 3 1 0 0 0 0 0 0 0 0 0 0 0 0 0 0 0 0 0 0 0 0 0 0 0 0 0 0 0 0 0 0 1 1 2 2 1
3 3 4 3 3 3 3 2 1 1 0 0 0 0 0 0 0 0 0 0 0 0 0 0 0 0 0 0 0 0 0 0 0 0 0 0 0 0 0 0 1 1 0
3 4 4 4 4 3 3 3 2 1 0 0 0 0 1 0 0 0 0 0 0 0 0 0 0 0 0 0 0 0 0 0 0 0 0 0 0 0 0 0 0 0 0
4 4 4 5 4 4 4 3 3 1 0 0 0 0 0 0 0 0 0 0 0 0 0 0 0 0 0 0 0 0 0 0 0 0 0 0 0 0 0 0 0 0 0
5 5 4 4 4 4 5 4 3 1 0 0 0 0 0 0 0 0 0 0 0 0 0 0 0 0 0 0 0 0 0 0 0 0 0 0 0 0 0 0 0 0 0
7 6 5 4 3 4 6 5 3 1 0 0 0 0 0 0 0 0 0 1 1 1 1 0 0 1 1 1 0 0 0 0 1 1 0 0 0 0 0 0 0 0 0
9 8 6 4 4 5 5 5 3 1 0 0 0 0 0 0 0 0 0 1 2 3 2 1 1 2 2 2 1 0 0 0 1 1 0 0 0 0 0 0 0 0 0
10 9 6 4 4 4 4 4 4 2 1 0 0 0 0 0 0 0 0 1 3 4 3 2 2 3 3 3 2 1 0 0 1 1 0 0 0 0 0 0 0 0 0

GEFSSE_con_prob3kmehi_240.txt.gz
EHI
0 0 1 0 0 0 0 0 0 0 0 1 1 1 0 0 0 0 0 0 0 0 0 0 0 0 0 0 0 1 1 1 2 2 1 0 0 0 0 0 0 0 0
0 0 1 1 1 0 0 0 0 0 0 0 0 0 0 0 0 0 0 0 0 0 0 0 0 0 0 0 0 0 0 1 2 2 1 0 0 0 0 0 0 0 0
0 0 1 2 2 1 1 1 0 0 0 0 0 0 0 0 0 0 0 0 0 0 0 0 0 0 0 0 0 0 0 0 1 1 0 0 0 0 0 0 0 0 0
0 0 1 2 2 2 2 2 1 0 0 0 0 0 0 0 0 0 0 0 0 0 0 0 0 0 0 0 0 0 0 0 0 0 0 0 0 0 0 0 0 0 0
0 0 0 1 1 2 3 3 1 1 0 0 0 0 0 0 0 0 0 0 0 0 0 0 0 0 0 0 0 0 0 0 0 0 0 0 0 0 0 0 0 0 0
0 0 0 0 0 1 2 3 2 2 1 1 1 1 0 0 1 1 1 0 0 0 0 0 0 0 0 0 0 0 0 0 0 0 0 0 0 0 0 0 0 0 0
0 0 0 0 0 0 1 2 2 1 1 1 0 1 1 1 2 2 1 1 1 1 1 1 1 0 0 0 0 0 0 0 0 0 0 0 0 0 0 0 0 0 0
0 0 0 0 0 0 0 1 1 0 0 0 0 1 1 1 2 3 3 2 2 1 2 2 1 0 0 1 1 1 2 1 0 0 0 0 0 0 0 0 0 0 0
0 0 0 0 0 0 0 0 0 0 0 0 0 1 1 1 2 3 3 3 3 3 3 2 1 0 1 2 3 3 4 2 0 0 0 0 1 1 0 0 0 0 0
0 0 0 0 1 0 0 0 0 0 0 0 0 1 0 0 1 2 3 4 4 3 2 1 0 0 1 4 5 4 3 2 0 0 0 0 1 2 1 0 0 0 0
0 0 0 0 0 0 0 0 0 0 0 0 0 1 1 1 2 1 2 5 5 3 1 0 0 0 1 3 4 3 2 1 0 0 0 0 1 2 1 0 0 0 0
0 0 0 0 0 0 0 0 0 1 1 1 0 0 1 2 2 1 2 5 5 3 1 0 0 0 0 1 1 2 1 0 0 0 0 0 1 2 2 1 0 0 0
0 0 0 0 0 0 1 1 1 2 2 2 1 1 1 1 1 1 2 3 4 4 2 1 0 0 0 0 0 0 0 0 0 0 1 1 2 2 3 2 1 0 0
0 0 0 0 1 2 3 4 3 2 2 2 2 2 1 0 0 0 2 3 4 4 3 1 0 0 0 0 0 0 0 0 0 0 1 2 2 2 2 2 1 0 0
0 0 1 1 2 5 8 8 6 4 2 2 2 2 1 0 0 0 1 3 3 4 3 1 0 0 0 0 0 0 0 0 0 0 1 2 3 2 1 1 1 0 0
0 1 2 3 4 6 9 10 7 4 2 1 1 1 1 0 0 0 1 2 2 2 2 1 0 0 0 0 0 0 0 0 0 0 1 2 3 2 1 0 0 0 0
0 1 2 3 5 7 7 8 7 5 3 2 1 1 0 0 0 0 0 1 1 1 1 0 0 0 0 0 0 0 0 0 0 0 1 2 2 2 2 2 1 0 0
1 1 1 3 5 6 6 6 5 4 4 4 3 2 1 1 0 0 0 0 0 0 0 0 0 0 0 0 0 0 0 0 0 0 1 1 1 1 3 4 3 2 1
4 4 3 4 4 4 4 4 4 4 3 3 2 2 2 2 1 0 0 0 0 0 0 0 0 0 0 0 0 1 0 0 0 0 0 0 0 0 2 4 5 4 3
8 8 9 8 7 5 4 3 3 3 2 1 1 1 2 2 2 1 0 0 0 0 0 0 1 1 1 0 0 0 0 0 0 0 0 0 0 0 1 3 4 4 4
11 13 15 14 13 10 7 4 3 3 2 1 1 1 1 1 1 1 0 0 0 0 1 1 1 1 1 0 0 0 0 0 0 1 1 0 0 0 0 1 1 2 3
13 15 18 19 18 15 9 5 4 3 2 1 1 0 0 0 0 0 0 0 0 0 2 3 3 2 1 0 1 0 0 0 0 0 1 1 0 0 0 0 0 1 1
13 14 17 20 21 18 12 6 3 3 2 2 2 2 1 1 0 0 0 1 1 0 1 4 6 5 3 3 4 3 1 0 0 0 0 1 1 1 0 0 0 2 3
13 14 18 22 25 25 20 12 7 5 3 4 4 5 5 4 2 1 1 2 2 1 2 5 8 9 8 7 7 7 5 3 3 2 1 1 2 1 0 0 0 2 4
14 16 20 26 31 33 30 24 18 10 5 5 5 7 8 7 5 3 4 4 4 3 4 6 9 11 11 11 10 10 9 7 6 5 3 2 1 1 0 0 0 2 3
16 17 21 28 36 38 35 32 26 16 8 5 5 8 10 9 8 7 6 6 5 4 5 7 9 11 12 12 12 11 11 9 8 7 5 2 1 1 0 0 0 1 1

GEFSSE_con_prob3kmehi_246.txt.gz
EHI
0 1 1 1 0 0 0 0 0 0 0 0 0 0 0 0 0 0 1 1 1 0 0 2 3 3 3 3 2 2 2 2 1 2 2 1 1 1 1 0 0 0 0
1 0 0 0 0 0 0 0 0 0 0 0 0 0 0 0 0 0 0 0 0 0 1 1 2 2 2 2 2 2 2 2 1 1 1 0 0 0 0 0 0 0 0
1 0 0 0 0 0 0 0 0 0 0 0 0 0 0 0 0 0 0 0 0 1 2 1 0 1 1 1 2 3 3 3 2 0 0 0 0 0 0 0 0 0 0
1 0 1 1 0 0 0 0 0 0 0 0 0 0 0 0 0 0 0 0 1 2 2 1 1 0 0 1 2 4 4 4 2 0 0 0 0 0 0 0 0 0 0
1 1 2 2 1 0 0 0 0 0 0 1 0 0 1 1 0 0 0 1 1 3 3 2 1 1 1 2 2 4 5 4 2 0 0 0 1 1 0 0 0 0 0
2 2 3 3 2 1 0 0 0 0 0 0 0 0 1 2 1 1 1 2 3 3 3 2 1 1 1 2 2 3 4 4 2 0 0 1 2 2 1 0 0 0 0
3 3 3 4 3 2 0 0 0 0 0 0 0 0 1 2 2 2 2 2 2 2 1 1 0 0 1 1 1 1 3 4 2 1 2 3 3 2 1 0 0 0 0
3 4 4 4 3 2 1 0 0 0 0 0 0 0 0 1 2 2 1 1 1 1 0 0 0 0 0 0 0 1 3 4 2 1 3 4 4 3 1 0 0 0 0
3 4 5 5 4 4 3 1 0 0 0 0 0 0 0 0 1 1 0 0 0 0 0 0 0 0 0 1 1 2 5 5 2 1 2 4 5 3 1 0 0 0 0
1 2 3 5 6 6 4 2 2 1 1 1 1 1 1 0 0 0 0 0 0 0 0 0 0 0 1 3 4 6 8 6 2 0 0 3 5 4 1 0 0 0 0
0 0 1 3 5 5 4 4 3 3 3 3 3 3 3 1 0 0 0 0 1 0 0 1 1 2 3 5 8 10 10 6 1 0 1 4 6 5 2 1 0 0 0
0 0 0 1 2 4 4 5 4 3 3 3 3 3 3 2 0 0 1 1 1 0 1 2 3 3 4 4 6 9 7 3 0 0 1 5 8 6 4 3 2 0 0
0 0 0 1 3 6 7 7 6 3 1 1 1 1 1 1 0 1 2 3 2 1 1 2 4 3 2 1 2 3 2 1 0 1 4 8 11 9 6 5 4 2 1
0 0 1 3 7 12 14 12 8 5 2 1 0 0 0 0 0 1 2 3 3 2 1 1 3 3 2 1 0 0 0 0 1 4 9 14 16 13 10 8 5 3 2
1 2 4 6 9 13 16 16 12 9 5 3 3 4 3 1 1 1 3 4 3 1 1 1 2 2 2 1 0 0 0 0 2 6 13 18 19 18 16 13 9 5 3
4 5 8 9 9 10 12 15 15 11 7 7 9 10 6 4 3 2 3 3 2 0 0 0 0 1 1 1 1 1 1 0 2 7 12 18 20 21 21 19 14 8 5
10 10 9 10 11 10 10 11 11 9 9 11 15 14 9 6 4 3 2 2 2 1 1 2 1 0 0 0 1 3 3 4 5 8 12 17 20 20 21 22 18 13 9
16 14 10 9 12 13 12 10 8 7 8 12 16 15 11 8 5 3 2 2 2 1 2 4 3 1 0 0 2 4 7 9 11 10 12 16 18 17 19 22 21 17 15
25 22 14 11 14 15 14 12 9 8 7 10 13 14 13 11 8 5 4 5 3 2 3 4 5 4 4 2 3 6 8 10 13 13 12 14 17 16 18 20 21 19 17
35 33 25 18 16 17 17 15 13 11 10 9 10 14 14 12 8 6 7 8 6 5 6 8 9 9 8 6 5 6 7 9 13 15 13 12 14 15 16 17 17 15 14
43 42 36 27 21 20 20 20 18 16 14 12 12 17 17 11 8 7 8 9 9 10 12 14 14 11 9 9 8 6 6 9 12 15 15 13 11 12 14 15 14 12 10
49 47 42 34 27 23 21 20 21 20 17 15 18 24 23 16 10 9 10 10 10 13 17 19 18 14 11 11 10 8 7 8 10 12 14 13 11 11 12 11 12 11 11
53 49 44 41 36 28 21 18 19 20 17 17 22 30 30 24 18 15 16 14 11 12 16 20 20 20 17 14 12 12 11 10 11 11 12 13 12 11 9 7 6 8 9
53 49 48 50 46 36 26 20 18 17 14 16 23 33 35 32 27 25 22 20 15 12 14 17 19 21 22 19 16 16 15 13 13 12 11 10 9 7 6 4 4 5 5
50 49 52 57 56 47 36 29 23 18 13 14 23 33 37 36 35 33 29 24 19 15 15 16 19 21 22 20 17 15 14 14 14 12 9 7 6 5 5 7 7 5 4
48 48 54 61 62 53 43 35 30 23 16 14 22 33 38 40 41 39 32 25 21 19 17 17 20 21 20 18 16 14 13 13 13 10 6 4 5 5 6 9 9 6 4

GEFSSE_con_prob3kmehi_252.txt.gz
EHI
0 1 2 2 1 0 0 0 0 0 0 0 1 2 1 1 2 3 3 2 1 0 0 0 0 0 1 2 2 1 0 1 2 2 1 0 1 1 2 2 2 2 3
0 1 2 3 1 0 0 0 0 0 0 1 2 2 1 1 2 3 3 2 1 0 0 0 0 0 0 1 1 0 0 1 3 2 1 0 0 1 1 1 1 1 1
0 1 2 3 2 1 0 0 0 0 1 2 1 1 1 1 3 3 3 1 0 0 0 0 0 0 0 0 0 0 0 1 2 2 1 0 0 0 0 0 0 0 0
0 0 2 3 3 2 1 0 0 1 2 3 1 0 1 2 3 3 2 1 0 0 0 0 0 0 0 0 0 0 0 1 1 1 0 0 0 0 0 0 0 0 0
0 1 3 4 4 3 1 0 0 1 2 2 1 0 1 2 3 3 2 1 0 0 0 0 0 0 0 0 0 0 0 0 0 0 0 0 0 0 0 0 0 0 0
1 1 3 5 6 5 3 1 0 0 1 1 0 0 1 2 3 2 1 0 0 0 0 0 0 0 0 0 0 0 0 0 0 0 0 0 0 0 0 0 0 0 0
0 1 2 6 8 7 5 3 1 0 0 0 0 0 1 2 2 1 0 0 0 0 0 0 0 0 0 0 1 1 0 0 0 0 0 0 0 0 0 1 1 1 0
1 1 3 6 7 7 5 3 2 0 0 0 0 0 0 1 1 0 0 0 0 0 0 0 0 0 0 1 2 2 1 0 0 0 0 0 1 2 1 2 2 2 1
2 3 4 6 6 6 5 3 1 0 0 0 0 0 0 1 0 0 0 0 0 0 0 0 0 0 0 1 3 2 1 1 1 0 0 1 4 3 2 3 3 2 1
2 3 5 6 6 6 6 4 2 0 0 0 0 0 1 1 0 0 0 0 0 0 0 0 0 1 2 2 3 3 2 1 1 0 0 2 5 5 4 3 2 1 1
1 2 4 6 6 6 6 5 3 1 1 0 0 0 1 0 0 0 0 0 0 0 0 0 2 3 3 2 2 2 2 1 0 0 0 3 6 7 7 5 2 1 1
0 0 2 4 4 3 4 4 3 1 0 0 0 0 0 0 0 0 0 0 0 0 0 0 2 3 2 1 1 1 1 0 0 0 1 6 9 11 10 8 5 3 3
0 0 0 1 1 1 2 3 3 1 0 0 0 0 0 0 0 0 0 0 0 0 0 0 1 1 0 0 0 0 0 0 0 0 2 8 13 14 14 11 8 7 6
0 0 0 0 0 0 1 3 3 2 0 0 0 0 0 0 0 0 0 0 0 0 0 0 0 0 0 0 0 0 0 0 0 0 3 10 16 18 16 12 9 8 6
1 1 1 1 1 1 1 3 3 1 0 0 0 0 0 0 0 0 0 0 0 0 0 0 0 0 0 0 0 0 0 0 0 0 3 10 17 19 17 13 9 6 5
2 2 2 2 2 2 3 3 3 1 0 0 0 0 0 0 0 0 0 0 0 0 0 0 0 0 0 0 0 0 0 0 0 0 1 5 12 17 18 14 9 6 4
5 4 4 4 3 3 4 4 3 2 1 1 0 0 0 0 0 0 0 0 0 0 0 0 0 0 0 0 0 0 0 0 0 0 0 1 4 10 15 15 12 9 7
8 7 7 5 4 3 4 4 3 2 2 1 0 0 0 0 0 0 0 0 0 0 0 0 0 0 0 0 0 0 0 0 0 0 0 0 1 4 8 12 13 13 11
11 10 8 6 5 4 4 4 3 1 1 0 0 0 1 1 1 0 0 0 0 0 0 0 0 0 0 0 0 0 0 0 0 0 0 0 1 1 2 5 9 11 11
14 14 10 7 6 5 4 4 3 1 0 0 0 1 2 3 2 1 0 0 0 0 1 1 0 0 0 0 0 0 0 0 0 0 0 0 1 2 1 1 3 5 5
20 18 14 11 8 6 4 4 2 1 0 0 1 3 4 4 3 3 1 0 1 2 1 1 1 0 1 1 1 0 0 0 0 0 0 0 1 2 2 1 1 2 3
26 23 19 15 12 8 6 5 2 0 0 0 1 3 6 6 4 5 4 2 3 4 3 3 2 2 2 2 1 0 0 0 0 0 0 0 0 1 1 2 2 2 3
32 29 24 18 14 10 8 6 4 2 1 0 1 3 6 6 5 6 7 5 5 6 6 6 4 3 3 3 2 1 0 0 0 0 0 0 0 0 0 1 1 2 3
38 34 28 20 14 12 10 9 6 3 2 1 1 2 5 6 7 9 10 9 7 7 8 7 6 4 4 3 3 2 1 0 0 0 0 0 0 0 0 0 0 1 2
39 37 31 21 15 13 13 11 8 4 3 1 0 1 4 7 10 12 14 12 9 8 7 6 6 6 5 4 4 4 3 2 1 0 0 0 0 0 0 0 0 0 1
38 38 33 24 16 13 13 12 9 5 3 1 0 0 3 8 12 14 16 13 9 8 6 6 6 6 6 6 5 5 5 4 2 1 0 0 0 0 0 0 0 0 0

GEFSSE_con_prob3kmehi_258.txt.gz
EHI
3 4 4 4 4 4 5 5 4 3 3 3 3 4 4 4 3 3 3 2 2 2 1 2 3 3 2 2 1 0 0 0 0 2 4 5 5 6 6 4 3 3 3
3 4 5 6 6 6 6 5 4 3 3 3 3 3 4 3 3 3 3 2 1 1 1 1 1 1 1 1 0 0 1 1 1 2 3 3 3 4 4 4 3 3 3
3 4 6 6 7 8 7 5 4 3 3 4 4 3 3 3 2 3 3 2 1 0 0 0 0 0 0 0 0 1 2 3 2 2 2 1 1 2 3 3 3 3 3
3 4 6 6 7 7 7 6 4 4 4 4 5 4 4 3 3 3 3 3 1 0 0 0 0 0 0 0 0 1 2 3 2 1 1 0 0 1 1 2 3 3 3
3 4 5 6 6 5 5 5 4 5 4 4 4 5 4 4 3 3 3 3 2 1 1 1 1 0 0 1 1 2 2 2 1 0 0 0 0 0 0 1 1 2 2
3 3 4 6 6 4 4 4 4 5 5 4 3 4 4 3 3 3 3 3 3 3 2 2 1 1 1 2 2 2 1 1 0 0 0 0 0 0 0 0 1 1 1
3 3 4 6 6 4 3 4 4 4 4 3 3 3 3 3 3 3 3 3 3 3 3 3 2 1 2 3 3 1 0 0 0 0 0 0 1 1 1 1 2 2 1
3 3 4 5 6 4 3 3 4 3 3 3 3 3 3 3 3 3 3 3 3 3 3 3 3 3 3 3 2 1 0 0 0 0 0 1 2 2 2 3 4 3 2
3 3 4 5 6 5 4 3 3 3 3 3 3 3 3 3 3 3 3 3 3 3 3 3 3 3 3 3 3 1 0 0 0 0 0 1 3 4 4 4 5 5 4
3 3 4 5 6 6 4 3 3 3 3 3 3 3 3 2 2 3 3 3 3 3 3 3 3 3 3 3 3 2 1 1 0 0 1 2 4 5 6 6 6 6 4
3 3 4 5 6 5 4 3 3 2 2 2 2 2 1 1 1 1 3 3 3 3 3 3 3 3 2 3 4 4 2 0 0 0 1 3 4 5 6 6 5 4 3
2 3 3 4 4 4 3 3 3 2 1 1 1 1 0 0 0 1 2 2 2 2 2 2 2 1 1 1 3 3 1 0 0 0 1 3 5 5 5 4 3 2 1
1 2 3 3 2 2 2 2 2 1 0 0 0 0 0 0 0 0 1 1 1 1 1 1 1 0 0 0 1 1 0 0 0 0 1 3 7 8 5 3 3 2 1
0 1 3 3 2 2 2 2 2 1 0 0 0 0 0 0 0 0 0 0 0 0 0 0 0 0 0 0 0 0 0 0 0 0 1 3 7 8 6 5 5 3 2
0 1 2 3 3 4 4 3 3 2 0 0 0 0 0 0 0 0 0 0 0 0 0 0 0 0 0 0 1 0 0 0 0 0 1 3 6 7 7 7 7 6 4
0 0 2 3 5 6 5 4 3 1 0 0 0 0 0 0 0 0 0 0 0 0 0 0 0 0 0 0 0 0 0 1 1 0 0 2 5 6 7 8 9 9 7
0 1 3 6 6 6 5 4 2 1 0 0 0 0 0 0 0 0 0 0 0 0 0 0 0 0 0 0 0 0 0 1 1 0 0 1 3 6 7 8 10 10 10
0 2 5 8 8 6 5 3 1 0 0 0 0 0 0 0 0 0 0 0 1 1 0 0 0 0 0 0 0 0 0 0 1 1 1 0 2 5 7 7 8 9 10
0 3 7 9 9 8 6 3 1 1 0 0 0 0 0 0 0 0 0 1 2 2 1 0 1 1 1 1 1 1 0 0 1 2 2 1 2 4 5 6 6 7 7
1 3 7 8 9 9 7 4 3 2 1 1 1 1 0 0 1 1 1 1 3 3 2 2 2 2 2 2 2 1 0 1 2 3 3 3 3 3 4 4 4 4 5
3 4 5 7 9 8 6 4 3 3 3 2 2 2 1 1 2 2 2 3 3 4 3 3 3 3 3 3 3 1 0 1 2 2 2 2 3 3 4 3 3 3 4
5 5 5 6 7 7 5 4 3 3 3 3 3 3 3 3 3 4 4 5 5 5 5 5 4 3 3 3 3 1 1 1 1 1 1 1 1 2 3 3 3 3 3
7 6 6 6 6 6 5 4 3 3 3 3 3 3 3 3 4 5 6 7 7 6 6 6 5 4 4 3 3 3 3 3 2 1 1 0 0 2 3 3 3 3 3
9 8 7 7 7 7 5 4 3 3 3 3 3 3 3 3 4 6 7 7 7 7 6 6 6 6 5 4 4 3 3 4 3 3 2 1 1 1 2 3 3 3 3
10 9 8 8 8 7 4 3 3 3 3 3 3 3 3 3 4 6 6 6 6 6 6 6 6 6 6 6 5 4 4 4 4 4 3 2 1 1 1 3 3 3 2
11 10 9 9 9 6 4 3 3 3 3 3 3 3 3 3 4 6 6 6 6 6 6 6 6 6 6 6 6 6 5 5 5 5 4 3 2 1 1 2 3 2 1

GEFSSE_con_prob3kmehi_264.txt.gz
EHI
0 1 5 7 4 2 1 1 0 0 0 0 0 0 0 0 1 1 1 0 0 0 0 0 0 1 3 4 3 3 2 1 0 0 1 3 3 2 2 2 1 0 0
0 1 4 5 4 2 1 1 0 0 0 0 0 0 0 0 0 0 0 0 0 0 0 0 1 2 3 4 3 3 2 1 0 0 1 2 3 2 2 2 2 1 0
0 1 3 4 3 2 2 1 1 0 0 0 0 0 0 0 0 0 1 1 0 0 0 0 1 2 3 3 2 2 1 0 0 0 0 1 1 1 1 2 2 1 0
0 1 2 3 2 2 2 2 1 0 0 0 0 0 0 0 0 0 1 1 0 0 0 0 1 1 2 1 1 1 1 1 1 1 0 0 0 0 0 1 1 0 0
0 1 3 3 2 1 1 2 1 0 0 0 0 0 0 0 0 0 1 1 0 0 0 0 0 0 0 1 1 1 2 2 1 0 0 0 0 0 0 0 0 0 0
1 2 3 4 3 1 0 1 1 0 0 0 0 0 0 0 0 0 0 0 0 0 0 0 0 0 0 0 1 2 2 2 1 0 0 0 0 0 0 0 0 0 0
1 2 4 4 3 2 0 0 1 0 0 0 0 0 0 0 0 0 0 0 0 0 0 0 0 0 0 0 0 1 1 1 0 0 0 0 0 0 0 0 0 0 0
1 2 3 3 2 1 0 0 0 0 0 0 0 0 0 0 0 0 0 0 0 0 0 0 0 0 0 0 0 0 0 0 0 0 0 0 0 0 0 0 0 0 0
1 2 2 2 1 0 0 0 0 0 0 0 0 0 0 0 0 0 0 0 0 0 0 0 0 0 0 0 0 1 1 0 0 0 0 0 1 0 0 0 0 0 0
0 1 1 1 0 0 1 1 0 0 0 0 0 0 1 1 0 0 0 0 0 0 0 0 0 0 0 0 0 1 1 0 0 0 0 1 2 1 0 0 0 0 0
0 1 1 1 1 1 2 2 1 0 0 0 0 0 1 1 0 0 0 0 0 0 0 0 0 0 0 0 0 0 0 0 0 0 0 2 3 1 0 1 1 0 0
1 1 2 3 3 3 3 3 2 1 0 0 0 0 0 0 1 1 1 0 0 0 0 0 0 0 0 0 0 0 0 0 0 0 1 2 3 3 2 3 3 2 1
0 1 3 4 4 3 3 3 3 2 1 0 0 0 0 1 2 3 3 1 1 0 0 0 0 0 0 0 0 0 0 0 0 0 1 3 4 4 4 5 5 4 2
0 1 3 5 5 4 4 3 3 3 1 0 0 0 0 1 2 4 5 4 2 1 1 1 0 0 0 0 0 0 0 0 0 0 1 3 4 4 4 5 5 5 4
1 2 4 6 7 7 6 4 4 3 2 0 0 0 0 0 1 4 5 5 3 3 2 2 1 1 1 0 0 0 0 0 0 0 1 3 4 5 5 5 5 6 6
1 2 5 7 9 9 8 5 3 2 1 0 0 0 0 0 1 3 4 4 3 3 3 3 3 3 2 1 0 0 0 0 0 0 1 3 5 6 6 5 5 7 7
1 2 4 7 9 9 8 5 2 1 0 0 0 0 0 0 1 2 3 3 3 3 3 4 4 5 3 1 0 0 0 0 0 0 0 1 4 5 5 5 5 6 7
2 3 5 7 8 9 9 6 2 0 0 0 0 0 0 0 1 2 3 3 3 4 4 4 4 5 5 2 1 1 0 0 0 0 0 0 1 2 5 8 8 6 6
3 4 6 8 8 8 8 7 3 0 0 0 0 0 0 0 0 2 3 4 4 5 5 5 5 6 5 3 2 2 1 1 0 0 0 1 1 1 3 7 9 8 6
3 4 6 8 9 8 8 8 5 2 0 0 0 0 0 0 1 2 4 5 6 6 6 5 5 5 4 3 3 3 3 2 1 0 0 1 2 2 2 4 6 8 8
2 4 6 8 9 8 8 8 7 3 1 0 0 0 0 0 1 2 5 6 6 6 6 5 4 4 3 3 3 3 3 3 2 1 1 1 2 3 2 2 4 6 6
4 6 8 8 8 8 7 7 7 4 1 0 0 0 0 0 0 1 4 5 4 5 6 5 4 3 3 3 3 3 3 4 3 3 1 1 1 2 2 1 2 3 3
7 9 10 9 9 9 8 8 7 5 2 1 1 1 1 1 1 1 2 2 3 4 5 4 3 3 3 3 3 3 4 4 4 4 3 1 0 0 1 1 1 2 2
8 10 12 14 14 13 11 9 9 7 5 3 3 3 3 2 2 1 1 1 3 5 5 4 3 3 3 3 3 3 4 4 4 4 3 2 1 0 0 1 1 2 2
7 9 13 16 16 15 14 13 11 9 8 6 5 5 6 5 4 3 2 3 5 6 6 6 5 5 5 4 3 3 4 5 5 4 4 3 1 0 0 1 1 1 1
8 9 11 15 16 15 15 14 13 10 9 8 7 7 8 8 6 5 4 5 6 6 7 8 8 7 7 5 4 4 5 6 6 6 4 3 2 1 0 1 0 0 0

GEFSSE_con_prob3kmehi_270.txt.gz
EHI
2 4 5 3 1 0 1 1 1 0 1 3 3 4 4 4 3 2 1 0 0 0 0 0 0 1 3 4 6 8 9 8 6 5 4 4 4 3 3 2 1 0 0
3 4 5 3 1 0 0 0 0 1 2 3 3 3 4 3 3 1 0 0 0 0 0 0 1 2 4 6 7 8 8 6 5 5 4 3 3 2 2 2 2 0 0
4 5 5 3 1 0 0 0 0 1 2 3 2 3 3 3 2 1 0 0 0 0 0 0 1 3 5 6 6 5 5 5 4 4 2 1 1 1 1 2 1 0 0
4 5 5 4 1 0 0 0 0 1 2 2 2 3 3 3 2 1 0 0 0 0 0 0 1 2 3 3 2 2 3 4 3 2 1 1 0 1 2 2 1 0 0
4 6 7 5 3 1 1 0 0 1 2 2 2 2 2 1 1 1 1 0 0 0 0 0 1 2 2 2 1 1 2 3 2 1 1 1 1 2 3 2 1 0 0
5 7 7 6 4 3 2 1 0 1 1 1 1 1 1 1 0 1 1 0 0 0 0 1 2 4 4 3 1 1 1 2 2 1 1 1 1 2 2 1 1 0 0
6 7 6 5 4 3 2 1 0 0 0 0 0 0 0 0 0 1 1 0 0 0 0 1 3 3 3 2 1 0 1 3 2 1 1 1 0 0 0 0 0 0 0
6 6 6 5 5 3 1 0 0 0 0 0 0 0 0 0 0 1 1 0 0 0 0 1 2 1 1 1 1 0 2 3 2 0 0 1 1 0 0 0 0 0 0
4 5 5 5 5 4 2 1 0 0 0 0 0 0 0 0 0 0 0 0 0 0 0 1 1 0 0 0 1 1 2 2 1 0 0 1 3 2 0 0 0 0 0
2 3 4 4 4 3 3 2 1 1 0 0 0 0 0 0 0 0 0 0 0 0 0 0 0 0 1 1 1 2 2 1 0 1 2 4 5 4 1 0 0 0 0
0 1 3 4 3 2 2 3 3 2 1 1 1 1 0 0 0 0 0 0 1 1 1 1 1 1 2 3 3 3 2 1 1 3 5 7 9 7 3 1 1 1 0
0 0 1 3 2 1 2 3 3 2 1 2 2 2 1 1 1 1 1 2 3 3 3 3 3 3 3 3 4 3 1 0 1 4 6 9 10 8 6 4 3 3 2
1 1 1 3 3 2 2 2 2 1 1 1 2 2 2 1 2 2 2 4 6 5 4 3 3 3 2 1 1 1 0 0 1 4 7 9 9 7 6 6 6 5 5
3 3 4 6 8 9 9 6 3 1 0 0 1 1 2 2 2 3 4 6 7 6 5 4 2 1 0 0 0 0 0 0 2 4 6 8 9 8 7 7 7 7 7
4 6 8 10 13 17 19 16 8 3 0 0 1 1 1 1 2 4 6 8 8 6 6 5 3 1 0 0 0 0 0 0 2 5 6 8 9 10 10 9 8 8 8
5 8 10 13 14 18 21 18 11 4 0 0 1 1 1 1 2 5 9 10 9 8 7 5 4 3 2 2 1 1 2 2 3 5 6 7 10 13 13 12 10 9 8
8 10 12 13 14 15 16 14 9 4 1 0 1 1 2 3 4 6 9 9 9 8 8 7 6 6 5 5 5 5 5 5 5 6 8 9 12 14 16 15 13 11 11
14 14 14 13 14 14 13 10 6 4 2 1 1 3 4 6 7 7 7 7 8 9 9 8 6 5 5 6 8 8 9 9 8 9 11 15 16 17 18 19 18 15 14
21 19 15 15 15 14 12 9 6 5 4 3 3 4 6 7 8 9 9 9 10 9 8 7 6 6 7 7 7 9 12 14 13 12 14 17 19 19 18 20 21 19 17
28 24 20 18 17 15 11 8 7 8 8 7 8 8 8 8 9 9 8 9 10 9 8 8 8 8 8 8 7 7 11 14 15 15 15 16 17 16 16 19 21 21 20
34 30 25 21 19 17 13 11 10 10 11 12 14 14 12 10 10 9 8 8 10 11 11 11 10 8 8 7 6 7 10 13 14 14 14 14 13 13 14 16 18 20 20
42 36 29 24 22 20 16 14 13 13 14 16 18 18 16 13 11 9 9 10 11 13 15 14 13 9 6 5 5 6 10 13 12 12 13 12 11 12 12 13 16 19 19
45 40 32 29 27 24 20 17 15 15 15 17 20 21 18 15 12 10 10 10 10 12 15 17 15 10 5 4 4 5 8 10 11 11 12 12 14 12 9 10 14 20 21
43 40 37 36 34 29 23 19 17 15 14 17 22 22 20 18 14 11 11 10 8 9 12 14 14 11 7 5 5 6 8 9 10 11 11 14 15 13 11 9 12 19 21
39 41 41 42 40 34 27 22 19 15 13 17 20 21 21 20 18 16 16 14 11 9 10 12 14 14 10 7 7 9 10 10 10 9 10 12 13 12 14 14 14 16 17
38 42 44 44 42 38 30 24 21 17 14 16 18 18 19 20 21 20 20 19 14 11 11 12 14 15 12 9 9 11 12 12 10 9 9 10 11 10 13 17 17 16 15

GEFSSE_con_prob3kmehi_276.txt.gz
EHI
0 2 4 3 1 2 4 6 6 6 6 6 5 5 6 5 2 1 1 1 0 0 0 1 0 0 1 3 4 4 4 3 1 0 0 1 4 5 3 1 0 1 1
0 2 4 3 1 2 4 6 6 5 5 6 6 6 5 3 1 1 2 2 1 0 0 1 0 0 2 3 4 3 3 3 1 0 0 1 3 3 2 2 1 0 1
1 1 3 2 1 1 3 5 5 4 5 6 6 5 3 1 0 1 2 2 1 1 1 1 0 0 1 3 3 3 3 2 1 0 0 1 2 2 3 3 1 0 0
3 2 1 2 1 1 2 5 5 5 5 6 6 4 2 1 0 0 1 1 1 2 1 0 0 0 1 2 3 3 3 2 1 0 0 0 1 3 4 4 2 1 0
4 2 1 1 2 2 3 6 7 6 6 6 5 2 1 1 1 0 0 0 1 2 1 0 0 0 1 1 3 3 3 1 0 0 0 0 1 2 4 4 3 1 0
3 2 1 2 3 3 5 7 8 7 6 4 2 1 0 1 1 1 0 0 0 1 1 0 0 1 1 2 3 3 2 1 0 0 0 0 1 2 3 3 2 1 1
3 3 3 5 6 5 6 8 8 7 4 2 0 0 1 1 1 1 0 0 0 1 1 1 1 2 2 2 3 3 1 0 0 0 0 1 2 3 2 1 1 1 0
5 4 5 7 9 8 8 8 8 6 3 1 1 1 2 2 1 1 1 0 1 2 2 1 1 2 2 3 3 3 1 0 0 0 1 2 3 4 2 0 0 0 0
7 7 6 7 8 8 8 8 7 5 2 1 2 3 2 1 0 0 0 0 1 2 2 1 0 1 1 2 3 3 2 1 0 0 1 2 4 5 4 1 0 0 0
7 7 6 5 6 6 6 6 5 3 1 1 2 3 2 1 0 0 0 1 2 2 2 1 1 1 1 1 2 3 2 1 0 1 2 4 6 8 7 5 2 1 0
4 4 4 4 5 4 4 5 4 3 1 1 2 2 2 1 0 0 1 2 2 3 3 3 3 3 2 1 1 2 1 0 1 2 3 6 9 10 8 7 5 2 1
1 1 2 4 5 4 4 4 3 2 1 0 1 1 1 0 0 0 1 2 2 2 3 4 4 3 2 1 1 1 0 0 1 2 4 7 10 9 7 6 6 4 2
0 0 2 5 6 6 5 4 2 1 0 0 0 0 0 0 0 0 0 1 1 1 1 1 2 1 0 0 0 0 0 0 1 1 3 7 9 7 5 6 7 7 5
1 1 2 5 6 6 5 4 3 2 1 0 0 0 0 0 0 0 0 0 0 0 0 0 0 0 0 0 0 0 0 0 0 0 2 7 9 7 6 7 8 8 8
2 1 2 4 6 6 4 2 3 3 2 1 0 0 0 0 0 0 0 0 0 0 0 0 0 0 0 0 0 0 0 0 0 0 2 7 11 11 9 8 8 9 9
1 2 3 4 6 6 3 2 2 3 2 1 0 0 0 0 0 0 0 0 0 0 0 0 0 0 0 0 0 0 0 0 0 0 1 4 11 15 13 10 8 8 9
3 4 6 7 7 6 3 2 3 3 1 0 0 0 0 0 0 0 0 0 0 0 0 0 0 0 1 1 1 1 1 1 1 1 1 2 6 12 14 13 11 9 8
7 7 8 8 7 5 4 3 3 2 1 0 0 0 0 0 1 1 1 0 0 0 0 0 1 1 2 2 2 2 2 2 3 3 3 2 3 6 10 13 13 11 9
10 8 7 7 6 4 3 3 3 2 1 0 0 1 1 1 2 2 1 0 0 0 1 1 2 3 3 3 3 3 3 3 4 4 4 4 3 3 4 7 11 10 9
9 8 8 7 4 2 1 2 2 2 2 1 1 1 1 1 2 2 1 0 0 1 2 3 3 3 3 3 3 3 3 3 3 4 5 5 4 2 1 2 4 5 5
8 8 9 8 4 1 1 2 2 1 1 1 1 1 1 1 2 1 1 1 1 2 3 3 3 3 3 3 2 2 2 2 2 3 4 5 3 2 2 2 1 1 2
12 11 11 9 5 2 1 1 1 0 0 0 0 0 0 1 1 1 2 3 3 3 3 3 3 3 2 1 1 1 1 1 1 1 2 3 2 2 4 4 2 1 1
19 16 14 13 9 4 1 1 1 0 0 0 0 0 0 0 0 1 3 4 4 3 2 2 2 2 1 0 0 1 2 2 1 0 1 1 1 1 3 4 3 1 1
26 22 18 17 14 7 2 1 1 0 0 0 0 0 0 1 1 1 3 3 2 1 1 1 1 1 0 0 0 1 1 2 1 0 0 0 0 0 1 2 1 1 1
30 27 24 22 18 11 5 2 1 0 0 0 0 0 1 2 2 2 2 2 0 0 0 0 0 0 0 0 1 1 1 1 1 0 0 0 0 0 0 0 0 0 1
33 31 27 24 20 14 7 2 1 0 0 0 0 1 2 2 2 2 2 2 1 0 0 0 0 0 0 1 2 2 2 1 0 0 0 0 0 0 0 0 0 0 1

GEFSSE_con_prob3kmehi_282.txt.gz
EHI
1 3 4 3 3 3 3 4 5 4 3 3 3 2 1 0 0 1 2 2 3 3 1 1 2 2 2 1 0 1 3 3 2 2 1 1 1 2 6 7 3 1 0
0 2 3 3 3 3 3 4 4 4 3 3 3 2 1 0 0 1 2 1 1 1 1 2 2 2 1 0 1 2 3 3 3 2 1 0 0 1 4 5 2 0 0
0 0 1 2 3 3 3 4 4 3 3 3 3 1 0 0 0 1 1 1 0 0 1 2 1 1 1 1 1 2 3 2 3 2 1 0 0 0 2 2 1 0 0
0 0 0 1 2 3 4 4 4 3 3 3 2 1 0 0 0 0 0 0 0 0 1 1 0 1 2 2 2 2 2 1 2 2 1 0 0 0 0 1 1 1 0
0 0 0 1 2 4 4 5 4 3 2 1 1 0 1 1 1 0 0 0 0 0 0 0 0 1 2 3 2 1 1 2 2 2 1 0 0 0 0 1 1 1 0
0 0 0 1 3 5 5 5 4 3 1 0 0 1 2 2 2 1 0 0 0 0 0 0 0 1 3 3 3 2 2 2 2 1 0 0 1 1 0 0 1 2 1
0 0 0 1 3 5 5 4 4 2 1 1 0 1 2 3 2 1 0 0 1 1 1 1 1 2 3 3 3 3 3 3 1 0 0 1 1 1 0 0 1 2 2
0 0 1 2 3 4 4 3 2 2 2 2 1 2 3 3 1 0 0 0 1 2 3 3 3 3 3 3 3 3 3 2 1 0 0 1 2 1 0 0 0 1 1
1 1 1 2 3 2 3 2 1 1 1 2 3 4 4 2 1 0 0 0 0 1 4 5 4 3 3 3 3 3 3 2 1 0 0 1 2 1 1 1 0 0 1
2 2 1 2 2 2 2 1 0 0 0 1 3 3 2 1 0 0 0 0 0 1 3 5 4 3 3 3 3 3 2 1 0 0 0 1 2 2 1 0 0 0 1
3 3 2 2 3 2 1 0 0 0 0 0 1 1 0 0 0 0 0 0 0 1 2 3 3 3 3 3 3 2 1 0 0 0 1 2 2 1 0 0 1 1 1
2 2 1 2 3 3 2 0 0 0 0 0 0 0 0 0 0 0 0 0 0 0 2 3 3 3 2 2 2 1 0 0 0 1 2 3 2 1 1 2 2 2 1
1 1 1 1 2 2 1 0 0 0 0 0 0 0 0 0 0 0 0 0 0 0 1 2 2 1 1 0 0 0 0 0 0 1 2 2 3 3 4 5 4 3 2
0 0 0 1 1 1 0 0 0 0 0 0 0 0 0 0 0 0 0 0 0 0 0 1 1 0 0 0 0 0 0 0 0 0 1 2 4 5 6 6 4 3 3
0 0 0 0 0 0 0 0 0 0 0 0 0 0 0 0 0 0 0 0 0 0 0 0 0 0 0 0 0 0 0 0 0 0 0 1 4 6 6 6 4 3 4
0 1 1 1 0 0 0 0 0 0 0 0 0 0 0 0 0 0 0 0 0 0 0 0 0 0 0 0 0 0 0 0 1 1 1 1 2 5 7 7 5 4 5
1 2 2 1 0 0 0 0 0 0 0 0 0 0 0 0 0 1 1 0 0 0 0 0 0 0 0 0 0 0 0 1 2 2 2 2 1 3 7 8 7 5 4
1 2 3 2 1 0 0 0 0 0 0 0 0 0 0 1 1 1 1 0 0 0 0 0 0 0 0 0 0 0 1 1 2 2 3 2 1 1 3 7 8 7 5
1 2 3 2 1 0 0 0 0 0 0 0 0 0 0 1 1 1 1 0 0 0 0 0 0 0 0 0 0 0 1 1 1 1 1 2 1 0 1 3 5 5 5
1 2 3 2 1 0 0 0 0 0 0 0 0 0 0 1 1 0 0 0 0 0 0 0 0 0 0 0 0 0 1 1 0 0 0 1 1 0 0 0 1 2 2
2 3 3 2 1 0 0 0 0 0 0 0 0 0 0 0 0 0 0 0 0 0 0 0 0 0 0 0 0 0 0 0 0 0 0 0 0 0 0 0 0 0 0
4 4 4 3 1 0 0 0 0 0 0 0 0 0 0 0 0 0 0 0 0 0 0 0 0 0 0 0 0 0 0 0 0 0 0 0 0 0 0 0 0 0 0
7 6 7 6 3 1 1 1 1 0 0 0 0 0 0 0 0 0 0 0 0 0 0 0 0 0 0 0 0 0 1 1 1 1 0 0 0 0 0 0 0 0 0
10 10 10 9 6 2 2 2 2 1 0 0 0 0 0 0 0 0 0 0 0 0 0 0 0 0 1 2 1 1 2 2 2 1 0 0 0 0 0 0 0 1 1
11 13 14 13 9 5 3 3 3 1 0 0 0 0 0 0 0 0 0 0 0 0 0 0 0 1 2 3 3 2 3 3 3 1 0 0 0 0 0 0 0 1 2
11 14 16 16 12 7 4 3 3 2 1 0 0 0 0 0 0 0 0 0 0 0 0 0 0 1 2 3 3 3 2 3 2 1 0 0 0 0 0 0 0 1 1

GEFSSE_con_prob3kmehi_288.txt.gz
EHI
2 4 6 5 4 5 5 3 1 0 0 0 0 0 0 0 1 3 3 2 1 2 4 4 2 0 1 2 2 1 1 2 2 1 1 1 0 1 3 3 2 1 0
2 4 6 5 4 4 4 3 1 0 0 0 0 0 0 0 1 2 3 2 1 2 4 3 2 1 1 3 2 1 0 1 1 0 0 0 0 2 3 3 3 1 0
1 3 4 4 3 3 3 2 0 0 0 0 0 0 0 0 1 1 2 2 1 2 4 3 1 1 2 3 2 1 0 0 0 0 0 0 0 1 2 3 3 2 1
0 1 2 3 3 3 2 1 0 0 0 0 0 0 0 0 0 0 1 2 2 2 3 2 0 1 1 2 1 1 0 0 0 0 0 0 0 1 2 2 2 1 1
0 1 2 3 3 3 2 1 0 0 0 0 0 0 0 0 0 0 0 1 1 1 1 0 0 1 1 0 1 1 0 0 0 0 0 0 1 2 3 2 2 1 1
0 1 2 3 3 3 1 0 0 0 0 0 0 0 0 0 0 0 0 0 0 0 0 0 0 1 0 0 1 1 1 0 0 0 0 0 1 3 2 2 2 2 1
0 1 3 4 3 3 1 0 0 0 0 0 0 0 0 0 0 0 0 0 0 0 0 0 0 0 0 0 1 2 1 0 0 0 0 0 1 1 1 0 1 1 1
0 2 4 5 4 3 2 1 1 1 0 0 0 0 0 0 0 0 0 0 0 0 0 0 0 0 0 0 1 2 2 1 0 0 0 0 0 1 0 0 0 0 0
1 2 4 4 3 3 3 2 1 0 0 0 0 0 0 0 0 0 0 0 0 0 0 0 0 0 0 0 1 3 3 1 0 0 0 0 0 0 0 0 1 1 1
0 1 3 2 2 2 3 2 1 0 0 0 0 0 0 0 0 0 0 0 0 0 0 0 0 0 0 1 2 4 3 1 0 0 0 0 0 0 0 2 4 4 2
0 1 2 2 2 1 1 2 1 0 0 0 0 0 0 0 0 0 0 0 0 0 0 0 0 0 1 2 3 4 3 1 0 0 0 0 1 1 1 3 5 4 2
0 0 1 2 1 0 0 1 1 0 0 0 0 1 1 0 0 0 0 0 0 0 0 0 0 0 1 1 2 2 1 1 0 0 0 1 2 2 2 3 4 3 1
1 0 0 1 1 1 0 0 0 0 0 0 0 1 1 0 0 0 0 0 0 0 0 0 0 0 0 0 0 0 0 0 0 0 0 1 3 2 1 1 2 2 1
2 1 1 1 3 4 2 1 0 0 0 0 0 0 0 0 0 0 0 1 1 1 1 1 0 0 0 0 0 0 0 0 0 0 0 2 3 2 0 0 0 0 0
3 3 2 2 4 6 5 3 1 0 0 0 0 0 0 1 1 0 1 2 2 1 1 2 1 0 1 1 0 0 0 0 0 0 1 3 4 4 3 2 2 1 0
3 3 3 3 4 5 5 3 1 0 0 0 1 0 0 1 1 1 1 1 1 0 1 2 2 1 1 1 0 0 0 0 0 0 0 2 4 7 8 7 5 3 2
3 3 4 4 5 5 4 2 0 0 0 1 1 0 1 1 2 2 1 0 0 0 0 1 1 1 1 1 0 0 0 0 0 0 0 0 2 6 10 10 8 6 5
4 4 5 5 6 5 3 1 0 0 0 1 0 1 2 2 3 2 1 0 0 0 0 0 0 1 1 0 0 0 0 0 0 0 0 0 1 3 6 8 8 7 6
5 6 7 7 7 6 4 2 1 0 0 0 0 1 2 2 2 2 1 0 1 1 1 1 0 0 0 0 0 0 0 0 0 0 0 1 1 1 2 5 6 6 6
7 9 11 11 10 8 5 3 2 1 0 0 0 0 1 1 1 1 0 1 2 2 2 1 0 0 0 0 0 0 0 0 1 1 1 1 1 2 2 3 4 5 5
10 12 14 14 14 12 9 6 4 2 1 0 0 0 0 0 0 0 0 1 2 1 1 0 0 0 0 0 0 0 0 0 1 2 2 1 1 2 3 3 4 5 5
12 14 15 16 17 16 13 9 6 3 1 0 0 0 0 0 0 0 0 1 1 0 0 0 0 0 0 0 1 1 0 1 1 2 1 1 0 1 2 4 4 4 4
12 14 16 18 18 18 16 12 8 5 3 1 0 0 0 0 0 0 0 0 0 0 1 1 1 0 1 1 2 2 1 1 1 1 0 0 0 0 1 3 3 3 3
11 12 16 19 20 20 20 17 12 7 4 2 1 0 0 0 0 0 0 0 0 0 1 2 2 2 2 3 4 4 3 2 2 1 0 1 1 0 0 1 1 2 3
9 10 15 19 21 22 23 23 18 10 5 3 2 2 1 0 1 1 1 1 0 0 0 1 2 2 4 5 5 4 5 5 4 2 2 2 2 1 1 1 0 2 3
9 9 13 19 22 23 24 24 21 12 6 4 4 4 2 1 2 2 2 2 1 0 0 0 1 2 4 5 4 4 5 7 6 3 3 3 3 2 2 2 1 1 3